www.pogodaiklimat.ru

Погода и климат >> Архив погоды >> Россия >> Ямало-Ненецкий АО >> Толька


АРХИВ ПОГОДЫ в Тольке

Время (UTC), дата Ветер
(напр.,м/с)
 
Видим.   Явления Облачность Т
(С)
Тd
(С)
f
(%)
Тe
(С)
Тes
(С)
Комфортность P
(гПа)
Po
(гПа)
Тmin
(С)
Tmax
(С)
R
(мм)
R24
(мм)
S
(см)
18 14.05 С 3 20 км ясно -2.9 -8.1 67 -8 -8 1023.7 1019.2
21 14.05 СЗ 2 20 км ясно -4.6 -8.1 76 -9 -9 1023.9 1019.4
00 15.05 С 3 50 км 4/0
[Ac trans]
-4.9 -8.2 78 -10 -9 1024.3 1019.8
03 15.05 СЗ 4 50 км 3/3 600 м
[Sc]
-3.4 -7.9 71 -9 -6 1024.6 1020.1 -4.9 17
06 15.05 СЗ 4 50 км 4/3 600 м
[Sc Ac trans]
-1.0 -7.0 64 -6 -1 1024.0 1019.6
09 15.05 СЗ 4 50 км ясно +1.4 -7.1 53 -3 +3 1023.6 1019.2
12 15.05 СЗ 3 50 км ясно +1.6 -9.0 45 -2 +1 1023.5 1019.2
15 15.05 СЗ 3 50 км ясно -1.2 -8.2 59 -6 -5 1024.0 1019.5 +2.1
18 15.05 С 2 20 км ясно -4.1 -8.4 72 -8 -8 1024.1 1019.6
21 15.05 СЗ 2 20 км ясно -6.0 -8.9 80 -10 -10 1024.0 1019.5
00 16.05 СЗ 2 50 км ясно -5.0 -8.6 76 -9 -8 1023.8 1019.3
03 16.05 СЗ 3 50 км ясно -1.4 -8.0 61 -6 0 1023.7 1019.2 -6.4 16
06 16.05 СЗ 4 50 км ясно +2.2 -9.9 40 -2 +6 1023.1 1018.7
09 16.05 СЗ 3 50 км 10/0
[Ci fib]
+4.6 -9.5 35 +2 +8 1022.6 1018.3
12 16.05 С 2 50 км 10/0
[Ci fib]
+4.5 -10.0 34 +3 +5 1022.3 1018.0
15 16.05 С 1 50 км 3/0
[Ci fib]
+2.2 -8.4 45 +1 +1 1022.1 1017.7 +5.1
18 16.05 штиль 0 20 км ясно -4.3 -7.5 78 -5 -5 1021.6 1017.1
21 16.05 штиль 0 20 км ясно -6.9 -7.9 93 -8 -8 1021.0 1016.5
00 17.05 штиль 0 50 км ясно +1.1 -6.2 58 +1 +3 1020.4 1016.0
03 17.05 штиль 0 50 км ясно +4.6 -9.6 35 1019.6 -7.3 11
06 17.05 штиль 0 50 км ясно +7.6 -9.5 29 +8 +23 опасность
простуды
1018.4 1014.2
09 17.05 В 1 50 км ясно +8.9 -9.0 27 +9 +20 опасность
простуды
1017.1 1012.9
12 17.05 В 2 50 км ясно +8.7 -9.1 27 +8 +11 1016.1 1011.8
15 17.05 В 1 50 км ясно +6.4 -8.3 34 +6 +6 1015.2 1011.0 +9.1
18 17.05 штиль 0 20 км ясно -0.8 -7.1 62 -1 -1 1014.5 1010.1
21 17.05 В 1 50 км ясно -0.2 -7.1 60 -2 -2 1012.7 1008.3
00 18.05 ЮВ 3 50 км ясно +3.3 -7.4 45 0 +1 1011.2 1006.9
03 18.05 В 3 50 км 3/0
[Ci fib]
+8.7 -6.7 33 +7 +12 1009.3 1005.1 -1.7 6
06 18.05 ЮВ 5-10
{11}
50 км 4/4 600 м
[Cb cap]
+10.6 -6.5 29 +8 +12 1007.6 1003.4
09 18.05 ЮВ 4
{13}
50 км 10/4 600 м
[Cb cap Ac As]
+9.8 -5.6 33 +8 +9 1006.7 1002.5
12 18.05 ЮВ 3
{13}
10 км слаб. ливневой дождь 10/5 300 м
[Cb cap Ac As]
+5.6 +0.8 71 +3 +3 1006.6 1002.3
15 18.05 В 3
{11}
4000 м слаб. ливневой дождь 10/10 420 м
[Cb cap]
+3.2 +2.1 92 -1 -1 1004.6 1000.3 +10.9 2
18 18.05 В 2 4000 м слаб. ливневой дождь 10/10 270 м
[Cb cap]
+3.1 +2.2 94 -0 -0 1001.8 997.5
21 18.05 В 3 20 км в посл. час ливневой дождь 10/10 240 м
[Cb cap]
+3.1 +2.3 94 -1 -1 999.3 995.0
00 19.05 ЮВ 3 50 км {ливн. осадки} 10/10 210 м
[Cb cap]
+3.5 +3.0 97 -1 -1 998.2 993.9
03 19.05 В 2 4000 м слаб. ливневой дождь 10/10 240 м
[Cb cap]
+4.2 +3.6 96 +1 +1 997.2 993.0 +3.0 5 6
06 19.05 В 2 4000 м слаб. ливневой дождь 10/10 270 м
[Cb cap]
+4.9 +4.2 95 +2 +2 996.7 992.4
09 19.05 В 1 4000 м дымка {ливн. осадки} 10/10 210 м
[St]
+5.6 +4.9 95 +4 +4 996.7 992.5
12 19.05 штиль 0 4000 м слаб. морось 10/10 240 м
[St]
+6.0 +5.2 95 +5 +5 997.7 993.5
15 19.05 ЮЗ 1 50 км {морось} 10/8 300 м
[Cb cap Ac As]
+4.8 +4.1 95 +3 +3 998.5 994.3 +6.1 5
18 19.05 ЮЗ 2 20 км {ливн. осадки, морось} 10/10 210 м
[Cb cap]
+3.3 +2.6 95 0 0 999.0 994.8
21 19.05 ЮЗ 2 20 км {ливн. осадки} 10/8 300 м
[Cb cap Ac As]
+2.8 +1.7 92 -0 -0 999.5 995.2
00 20.05 Ю 2 50 км {ливн. осадки} 4/0
[Ac trans]
+3.8 +1.0 82 +1 +2 999.8 995.5
03 20.05 Ю 2 50 км 4/3 600 м
[Cu hum Ci fib]
+8.1 +0.1 57 +7 +11 999.5 995.3 +2.4 0.0 6
06 20.05 В 1 50 км 3/3 600 м
[Cu hum Ci fib]
+11.5 -0.9 42 +12 +21 998.7 994.5
09 20.05 В 3 50 км 8/4 600 м
[Cb cap Ci fib]
+12.3 -0.6 41 +11 +15 998.4 994.3
12 20.05 Ю 2 10 км слаб. ливневой дождь 10/8 600 м
[Cb cap Ac As]
+9.6 +3.0 63 +8 +8 999.0 994.8
15 20.05 штиль 0 10 км слаб. ливневой дождь 10/4 600 м
[Cb cap Ac trans Ci sp]
+5.8 +4.5 91 +5 +5 998.2 994.0 +12.7 0.3
18 20.05 С 1 10 км слаб. ливневой дождь 10/6 600 м
[Cb cap Ac As]
+4.7 +4.0 95 +3 +3 997.2 992.9
21 20.05 С 1 20 км местами туман поземный {ливн. осадки} 10/4 600 м
[Cb cap Ac As]
+4.2 +3.6 96 +3 +3 995.9 991.6
00 21.05 СЗ 2 50 км {ливн. осадки} 10/4 600 м
[Sc Ac As]
+3.2 +2.0 92 0 0 994.9 990.7
03 21.05 С 3 50 км 9/4 600 м
[Sc Ac trans]
+5.4 +1.1 74 +2 +4 995.0 990.8 +3.1 0.4 0
06 21.05 СЗ 3 50 км 5/3 600 м
[Cu hum Ac trans]
+9.1 +0.6 55 +7 +13 995.0 990.8
09 21.05 СЗ 4 50 км 9/9 300 м
[Cb cap]
+5.3 +1.4 76 +1 +2 996.2 992.0
12 21.05 СЗ 3 4000 м в посл. час ливневой снег 10/10 270 м
[Cb cap]
+0.5 -1.4 87 -4 -4 998.0 993.7

 

Местоположение метеостанции Толька (Ямало-Ненецкий АО, Россия): широта 63.98 долгота 82.08 высота над уровнем моря 35 м.

В архиве по умолчанию представлена погода в Тольке за последнюю неделю. Архивные данные за месяц целиком и за предыдущие месяцы, начиная с января 2011 года, Вы можете получить, выбрав интересующий диапазон дат из раскрывающегося списка и нажав кнопку "Ввод!".


*Определитесь, кто Вы:
робот инопланетянин человек

Внимание! Время в таблицах - всемирное. Для получения местного времени необходимо прибавить поправку, которая равна 5 ч.

Смотрите также архив погоды в соседних городах и на ближайших метеорологических станциях:

Погода в Красноселькупске (Ямало-Ненецкий АО, Россия) (192 км)
Погода в Халясавэе (Ямало-Ненецкий АО, Россия) (197 км)
Погода в Тарко-Сале (Ямало-Ненецкий АО, Россия) (229 км)
Погода в Верещагино (Красноярский край, Россия) (263 км)
Погода в Келлоге (Красноярский край, Россия) (268 км)
Погода в Корликах (Ханты-Мансийский АО, Россия) (273 км)
Погода в Уренгое (Ямало-Ненецкий АО, Россия) (279 км)
Погода в Верхнеимбатске (Красноярский край, Россия) (305 км)
Погода в Радужном (Ханты-Мансийский АО, Россия) (314 км)
Погода в Советской Речке (Красноярский край, Россия) (326 км)

Пояснения к столбцам:

Ветер - указаны скорость ветра в м/с - средняя за 10 мин, порывы в срок и между сроками (в фигурных скобках) и направление, откуда дует ветер: С - северный, СВ - северо-восточный, В - восточный, ЮВ - юго-восточный, Ю - южный, ЮЗ - юго-западный, З - западный, СЗ - северо-западный.
Видимость - горизонтальная дальность видимости в метрах или километрах. При видимости от 1 до 10 км при отсутствии осадков обычно наблюдается дымка, при ухудшении видимости до 1 км и менее - туман. В сухую погоду видимость может ухудшаться дымом, пылью или мглою.
Явления - указаны атмосферные явления, наблюдавшиеся в срок или в последний час перед сроком; фигурными скобками обозначены явления, наблюдавшиеся между сроками (за 1-3 часа до срока); квадратными скобками обозначены град или гололедные отложения с указанием их диаметра в мм.
Облачность - указаны через наклонную черту общая и нижняя облачность в баллах и высота нижней границы облаков в метрах; квадратными скобками обозначены формы облаков: Ci - перистые, Cs - перисто-слоистые, Cc - перисто-кучевые, Ac - высококучевые, As - высокослоистые, Sc - слоисто-кучевые, Ns - слоисто-дождевые, Cu - кучевые, Cb - кучево-дождевые. Подробнее классификацию облаков см. в Атласе облаков (PDF).
T - Температура воздуха - температура, измеренная на высоте 2 м над землей.
Td - Температура точки росы - температура, при понижении до которой содержащийся в воздухе водяной пар достигнет насыщения.
f - Относительная влажность воздуха - влажноcть воздуха, измеренная на высоте 2 м над землей.
Te - Эффективная температура - температура, которую ощущает одетый по сезону человек в тени. Характеристика душности погоды. При расчете учитывается влияние влажности воздуха и скорости ветра на теплоощущения человека.
Tes - Эффективная температура на солнце - температура, которую ощущает человек, с поправкой на солнечный нагрев. Характеристика знойности погоды. Зависит от высоты солнца над горизонтом, облачности и скорости ветра. Ночью, в пасмурную погоду, а также при ветре 12 м/с и более поправка равна нулю.
P - Атмосферное давление - приведенное к уровню моря атмосферное давление.
Po - Атмосферное давление - измеренное на уровне метеостанции атмосферное давление.
Tmin - Минимальная температура - минимум температуры воздуха на высоте 2 м над землей.
Tmax - Максимальная температура - максимум температуры воздуха на высоте 2 м над землей.
R - Количество осадков - Количество выпавших осадков за период времени, мм. При наведении курсора мыши на число - период времени, за который выпало указанное количество осадков.
R24 - Количество осадков - Количество выпавших осадков за 24 часа, мм.
S - Снежный покров - Высота снежного покрова, см. При наведении курсора мыши на число - состояние снежного покрова и степень покрытия местности в баллах.